Location: Table Rock
(44.3339°N, 118.3154°W)
Time: 12:33:47
(UTC-07:00)

Daily predictions for brighter satellites

Satellite Brightness Start Highest point End
(mag) Time Altitude Azimuth Time Altitude Azimuth Time Altitude Azimuth
CZ-4C R/B 3.9 20:53:28 10° NNW 20:59:47 36° NE 21:06:50 10° ESE
USA 234 3.6 20:57:09 10° ENE 21:03:20 42° SE 21:09:30 10° SSW
ERS-2 3.1 21:02:15 10° S 21:05:50 49° W 21:09:26 10° NNW
NOSS 3-2 (A) 4.3 21:00:47 10° SW 21:06:40 58° NW 21:13:15 10° NNE
Cosmos 1666 3.5 21:07:52 10° NNW 21:11:40 54° W 21:15:26 10° S
Meteor 1-13 Rocket 4.4 21:06:37 10° S 21:12:28 68° E 21:18:24 10° NNE
ERS-1 Rocket 3.9 21:08:02 10° SE 21:12:30 34° ENE 21:17:00 10° N
NOSS 3-2 (C) 3.9 21:08:08 10° SW 21:14:03 69° NW 21:20:44 10° NE
Cosmos 1356 4.0 21:15:11 10° SSE 21:18:25 37° E 21:21:40 10° NNE
Cosmos 2360 Rocket 2.3 21:14:37 10° NNW 21:20:15 67° ENE 21:25:42 11° SE
Aureole 2 Rocket 1.8 21:19:09 10° NNW 21:22:04 86° WSW 21:24:40 11° SSE
Cosmos 2219 Rocket 3.7 21:18:02 10° N 21:22:33 24° NE 21:27:02 10° ESE
CENTAUR R/B 2.5 21:20:12 10° SSW 21:26:08 74° ESE 21:33:01 10° NE
Cosmos 1814 Rocket 4.2 21:23:53 10° SSW 21:29:09 78° WNW 21:34:31 10° NNE
Cosmos 1743 4.3 21:26:33 10° NNW 21:30:04 35° W 21:33:32 10° SSW
MetOp-A 4.2 21:25:29 10° SSE 21:30:49 75° ENE 21:36:12 10° N
Iridium 2 4.1 21:29:41 10° SSW 21:33:28 64° W 21:37:18 10° N
Cosmos 1455 Rocket 3.1 21:29:36 10° N 21:33:59 89° WNW 21:38:24 10° S
Meteor 2-9 Rocket 4.3 21:31:07 10° NNW 21:36:28 74° W 21:41:54 10° S
Cosmos 1125 Rocket 3.9 21:33:16 10° N 21:38:23 49° ENE 21:42:26 16° SE
SPOT 1/Viking Rocket 4.3 21:35:49 14° SE 21:39:48 37° ENE 21:44:31 10° N
Cosmos 1513 Rocket 4.5 21:33:48 10° S 21:39:49 66° E 21:45:58 10° NNE
Helios 1A 3.9 21:37:36 15° SE 21:40:31 35° ENE 21:44:20 10° N
USA 245 3.9 21:38:07 16° SE 21:40:59 50° ENE 21:45:34 10° N
H-2A R/B 2.0 21:38:23 12° SSE 21:43:00 78° ENE 21:48:06 10° N
Cosmos 1356 Rocket 4.4 21:43:16 17° SE 21:45:52 30° E 21:49:39 10° NNE
Cosmos 2034 Rocket 4.1 21:40:22 10° S 21:46:23 60° E 21:52:26 10° NNE
Cosmos 1464 Rocket 4.0 21:42:02 10° S 21:48:25 84° E 21:54:49 10° N
Cosmos 2333 Rocket 3.2 21:48:28 10° NNW 21:53:42 35° NE 21:57:46 16° ESE
COSMOS 2428 3.0 21:51:10 10° NNW 21:56:45 56° ENE 22:00:42 19° SE
Shenzhou-11 Module 3.7 21:54:49 10° WSW 21:57:01 19° SSW 21:57:41 18° S
Cosmos 1515 3.8 21:54:38 10° SSW 21:58:28 79° W 22:02:20 10° N
Helios 1B rocket 3.4 21:55:33 10° NE 21:59:14 30° E 22:00:54 22° SE
Abrixas rocket 3.5 21:57:50 10° WNW 22:00:55 39° N 22:03:59 10° ENE
Meteor 1-23 Rocket 4.2 21:56:21 10° S 22:01:56 90° W 22:07:32 10° N
Terra 2.9 22:00:26 18° ESE 22:03:08 32° ENE 22:07:20 10° N
ARGOS 3.7 22:00:39 10° S 22:05:56 55° W 22:11:15 10° NNW
Tiangong 2 1.1 22:03:08 10° W 22:06:14 58° S 22:07:27 32° ESE
DMSP B5D2-2 4.1 22:01:00 10° NNE 22:06:15 61° E 22:10:39 15° S
Lacrosse 5 rocket 2.0 22:02:26 10° WNW 22:06:34 45° SW 22:08:48 23° SSE
Cosmos 540 Rocket 3.6 22:01:35 10° SSW 22:06:45 81° WNW 22:11:58 10° NNE
SPOT 5 2.8 22:05:36 22° SSE 22:08:23 67° ENE 22:13:00 10° N
SJ 16-02 1.5 22:05:17 10° NNW 22:09:43 69° WSW 22:12:38 21° S
Cosmos 2297 Rocket 3.8 22:10:45 15° ESE 22:11:23 15° E 22:14:30 10° ENE
ISS -1.3 22:11:13 10° NW 22:13:52 22° N 22:16:30 10° NE
IGS 5A 4.1 22:12:02 25° SE 22:13:58 41° ENE 22:17:53 10° N
Cosmos 2227 Rocket 3.6 22:14:14 18° ESE 22:15:08 18° E 22:18:53 10° ENE
Cosmos 2322 Rocket 4.3 22:11:26 10° NW 22:15:24 20° W 22:19:20 10° SW
Cosmos 2322 4.1 22:12:33 10° NNW 22:18:12 60° WSW 22:22:10 20° S
Cosmos 2237 Rocket 3.3 22:15:07 10° N 22:20:14 33° NE 22:23:44 18° ESE
Cosmos 1536 Rocket 4.4 22:16:21 10° SSW 22:20:41 52° WNW 22:25:04 10° N
Cosmos 1544 3.4 22:21:12 10° N 22:24:50 50° ENE 22:25:57 36° SE
Cosmos 1726 Rocket 4.5 22:21:57 10° N 22:26:01 35° ENE 22:27:35 27° ESE
Okean 1-7 Rocket 4.0 22:25:45 30° SSE 22:27:37 48° E 22:32:00 10° NNE
Cosmos 1066 Rocket 4.1 22:26:49 21° S 22:30:25 72° E 22:35:54 10° NNE
Cosmos 192 4.5 22:39:50 32° SSE 22:41:48 53° ESE 22:46:35 10° NNE
Cosmos 2058 Rocket 3.8 22:41:48 10° N 22:46:05 40° ENE 22:47:19 33° ESE
USA 234 3.7 22:40:03 10° NE 22:46:32 65° NNW 22:53:00 10° WSW
DELTA 2 R/B (1) 4.0 22:42:14 10° SW 22:47:17 36° SSE 22:48:25 33° SE
Cosmos 1766 3.5 22:43:34 10° N 22:47:30 55° E 22:48:23 44° SE
Cosmos 2219 3.1 22:43:56 17° SSW 22:48:32 80° ESE 22:54:19 10° NNE
CZ-4C R/B 3.0 22:41:45 10° NW 22:48:57 72° WSW 22:53:30 28° SSE
ERS-1 Rocket 4.4 22:47:39 14° SSW 22:51:17 31° W 22:55:45 10° NNW
CARTOSAT-1 3.6 22:50:13 38° S 22:51:49 78° WSW 22:56:09 10° NNW
Cosmos 1092 Rocket 4.1 22:45:41 10° N 22:52:02 76° W 22:55:47 26° S
Cosmos 1025 Rocket 4.0 22:53:56 17° SW 22:56:59 45° WNW 23:01:13 10° N
Meteor 1-22 Rocket 4.0 22:52:52 10° N 22:58:14 86° E 23:00:22 37° SSE
CZ-2C R/B 3.1 22:53:15 10° NNE 22:58:41 48° E 23:00:28 36° SE
NOSS 0 Rocket 3.9 22:53:31 10° NNW 22:59:49 85° ENE 23:02:39 35° SSE
BREEZE-M R/B 4.1 22:58:21 10° WNW 23:00:46 25° N 23:02:04 16° NE
Cosmos 2360 Rocket 4.2 22:59:51 10° WNW 23:03:39 19° W 23:07:27 10° SW
Meteor 1-29 3.4 23:00:22 10° N 23:03:48 58° WNW 23:04:45 41° SW
ERBS 3.6 23:03:39 10° NW 23:06:47 34° NNE 23:07:36 29° ENE
Cosmos 2219 Rocket 2.4 23:01:25 10° NNW 23:06:55 60° WSW 23:09:09 35° S
Cosmos 1606 Rocket 3.7 23:04:39 10° NNW 23:09:04 68° W 23:10:26 42° SSW
Cosmos 1538 Rocket 4.0 23:09:12 42° SSE 23:10:45 62° ESE 23:15:57 10° NNE
Cosmos 489 Rocket 4.5 23:06:59 10° NNW 23:13:24 84° ENE 23:16:04 38° SSE
Cosmos 1758 4.0 23:11:05 10° N 23:14:59 41° ENE 23:15:22 40° E
CZ-2C R/B 3.2 23:13:05 38° S 23:15:14 77° WSW 23:20:57 10° NNW
Cosmos 2026 Rocket 4.0 23:12:52 10° NNW 23:19:01 74° W 23:21:44 35° S
Cosmos 1805 3.1 23:16:20 10° N 23:20:18 87° W 23:20:41 72° S
Cosmos 1842 3.1 23:21:07 74° S 23:21:27 85° E 23:25:23 10° N
H-2A R/B 4.4 23:20:47 10° WSW 23:23:04 13° W 23:25:22 10° WNW
Mayak 0.6 23:20:23 10° NE 23:22:59 19° E 23:22:59 19° E
Cosmos 2084 Rocket 3.1 23:19:38 10° NW 23:23:39 84° NE 23:23:57 75° ESE
Cosmos 2279 Rocket 3.9 23:22:25 37° S 23:25:07 85° E 23:31:21 10° N
Cosmos 1470 3.7 23:23:50 10° N 23:27:26 35° ENE 23:27:28 35° ENE
Cosmos 1655 Rocket 4.0 23:27:33 10° N 23:33:58 86° W 23:36:23 41° S
Helios 1B rocket 4.5 23:31:01 10° NNW 23:34:24 25° WNW 23:37:16 12° WSW
Cosmos 1174 4.3 23:34:12 10° NW 23:36:27 39° WNW 23:36:27 39° WNW
Abrixas rocket 3.0 23:34:33 10° WNW 23:37:32 48° N 23:37:32 48° N
Cosmos 2333 Rocket 3.1 23:32:44 10° NW 23:37:59 39° WSW 23:39:47 31° SW
H-2A R/B 3.6 23:37:16 23° E 23:38:06 24° ENE 23:41:31 10° NNE
SL-16 R/B 2.7 23:33:10 10° NNW 23:38:43 53° ENE 23:40:43 36° ESE
COSMOS 2428 4.3 23:36:13 10° NW 23:40:35 23° WSW 23:42:43 19° SW
Terra 3.1 23:39:19 25° SW 23:40:51 30° W 23:45:03 10° NW
COSMOS 2455 2.7 23:40:11 36° SSW 23:42:50 85° ESE 23:48:55 10° NNE
Cosmos 773 Rocket 4.1 23:43:59 39° SW 23:45:51 71° WNW 23:51:02 10° NNE
Cosmos 1980 4.0 23:41:44 10° NNW 23:47:14 54° WSW 23:48:37 43° SSW
Intercosmos 25 4.0 23:46:36 41° WSW 23:47:15 46° W 23:50:31 10° N
Cosmos 1707 3.7 23:47:59 37° ENE 23:47:59 37° ENE 23:51:09 10° NNE
CZ-4C R/B 4.5 23:48:37 36° E 23:49:15 38° ENE 23:53:21 10° N
ISS -2.2 23:47:58 10° NW 23:51:00 33° NNE 23:51:28 31° NE
Cosmos 2228 4.0 23:47:35 10° NNW 23:51:31 36° W 23:52:13 33° WSW
Meteor 2-11 Rocket 4.5 23:49:58 47° SSE 23:51:35 63° E 23:57:36 10° NNE
Cosmos 1378 3.5 23:52:08 57° NE 23:52:08 57° NE 23:55:23 10° NNE
SAR-Lupe-4 4.3 23:53:02 45° W 23:53:02 45° W 23:56:11 10° NNW
Cosmos 1953 2.2 23:51:00 10° N 23:54:54 84° N 23:54:54 84° N
